Location: Bílinka
(49.3579°N, 14.3767°E)
Time: 06:17:40
(UTC+00:00)

Cosmos 2228 - Visible Passes

Search period start: 21 May 2024 00:00
Search period end: 31 May 2024 00:00
Orbit: 578 x 605 km, 82.5° (Epoch: 20 May)

Date Brightness Start Highest point End Pass type
(mag) Time Alt. Az. Time Alt. Az. Time Alt. Az.
25 May 6.2 02:05:19 10° NNE 02:07:33 14° ENE 02:09:46 10° E visible
26 May 6.0 02:13:13 10° NNE 02:16:18 19° ENE 02:19:24 10° ESE visible
27 May 5.5 02:21:23 10° NNE 02:25:02 26° ENE 02:28:40 10° SE visible
